Radiation Dose at Monitoring Post of Fukushima Daini Nuclear Power Station
Date,Time,MP-1(microSv/h),MP-2(microSv/h),MP-3(microSv/h),MP-4(microSv/h),MP-5(microSv/h),MP-6(microSv/h),MP-7(microSv/h),Wind Direction,Wind Velocity(m/s),Rain
2015/11/02,00:00,0.519,0.293,0.539,0.498,0.456,0.242,0.212,south-southwest,1.9,No
2015/11/02,00:10,0.518,0.294,0.543,0.497,0.458,0.241,0.213,south-southwest,2.4,No
2015/11/02,00:20,0.521,0.293,0.541,0.496,0.457,0.242,0.213,southwest,2.6,No
2015/11/02,00:30,0.518,0.293,0.539,0.497,0.459,0.244,0.212,south-southwest,3.2,No
2015/11/02,00:40,0.518,0.294,0.542,0.495,0.459,0.242,0.213,south-southwest,3.6,No
2015/11/02,00:50,0.518,0.293,0.540,0.496,0.458,0.242,0.212,south-southwest,3.5,No
2015/11/02,01:00,0.517,0.293,0.539,0.497,0.459,0.242,0.214,south-southwest,1.9,No
2015/11/02,01:10,0.519,0.293,0.543,0.496,0.458,0.243,0.212,southwest,1.7,No
2015/11/02,01:20,0.518,0.292,0.539,0.497,0.457,0.243,0.213,south-southwest,1.5,No
2015/11/02,01:30,0.517,0.293,0.542,0.497,0.459,0.242,0.212,south-southwest,1.9,No
2015/11/02,01:40,0.520,0.294,0.541,0.495,0.458,0.242,0.212,south-southwest,2.2,No
2015/11/02,01:50,0.519,0.293,0.539,0.497,0.459,0.240,0.213,south-southwest,2.5,No
2015/11/02,02:00,0.517,0.294,0.541,0.498,0.458,0.241,0.212,south,1.3,No
2015/11/02,02:10,0.518,0.292,0.539,0.496,0.458,0.242,0.212,south-southwest,1.4,No
2015/11/02,02:20,0.516,0.293,0.543,0.497,0.459,0.242,0.214,southeast,0.6,No
2015/11/02,02:30,0.519,0.295,0.541,0.495,0.458,0.243,0.212,south,1.4,No
2015/11/02,02:40,0.518,0.293,0.541,0.497,0.459,0.241,0.212,south-southeast,0.8,No
2015/11/02,02:50,0.518,0.294,0.545,0.498,0.459,0.242,0.213,south-southwest,0.8,No
2015/11/02,03:00,0.520,0.294,0.539,0.495,0.458,0.243,0.213,northeast,0.7,No
2015/11/02,03:10,0.518,0.293,0.543,0.498,0.459,0.241,0.212,northeast,0.8,No
2015/11/02,03:20,0.519,0.295,0.543,0.497,0.458,0.243,0.212,northeast,0.6,No
2015/11/02,03:30,0.518,0.295,0.539,0.496,0.458,0.242,0.213,northeast,1.5,No
2015/11/02,03:40,0.520,0.294,0.544,0.498,0.458,0.242,0.213,northeast,0.8,No
2015/11/02,03:50,0.521,0.294,0.540,0.496,0.458,0.243,0.213,north-northeast,1.1,No
2015/11/02,04:00,0.514,0.293,0.541,0.498,0.460,0.242,0.213,north-northeast,0.8,No
2015/11/02,04:10,0.522,0.293,0.540,0.498,0.459,0.243,0.213,north-northeast,2.8,No
2015/11/02,04:20,0.517,0.294,0.541,0.495,0.459,0.243,0.213,north-northeast,2.2,No
2015/11/02,04:30,0.520,0.292,0.543,0.498,0.460,0.243,0.213,north-northeast,2.1,No
2015/11/02,04:40,0.519,0.295,0.541,0.496,0.458,0.243,0.213,north,1.8,No
2015/11/02,04:50,0.518,0.292,0.540,0.498,0.462,0.241,0.213,north-northeast,2.0,No
2015/11/02,05:00,0.521,0.293,0.543,0.496,0.460,0.242,0.212,north,1.9,Yes
2015/11/02,05:10,0.517,0.294,0.541,0.496,0.459,0.242,0.212,north,2.0,Yes
2015/11/02,05:20,0.522,0.294,0.542,0.499,0.460,0.242,0.212,northwest,0.7,Yes
2015/11/02,05:30,0.520,0.295,0.538,0.496,0.458,0.243,0.212,west-northwest,0.8,Yes
2015/11/02,05:40,0.519,0.293,0.542,0.497,0.462,0.243,0.212,north,0.8,No
2015/11/02,05:50,0.520,0.293,0.539,0.497,0.458,0.242,0.213,north-northeast,0.9,Yes
2015/11/02,06:00,0.517,0.294,0.542,0.495,0.462,0.243,0.212,north,1.1,Yes
2015/11/02,06:10,0.521,0.293,0.542,0.498,0.459,0.242,0.212,north-northeast,1.5,Yes
2015/11/02,06:20,0.517,0.294,0.541,0.496,0.458,0.244,0.214,north,1.2,Yes
2015/11/02,06:30,0.521,0.295,0.544,0.499,0.462,0.244,0.214,north-northeast,1.5,Yes
2015/11/02,06:40,0.520,0.294,0.543,0.499,0.460,0.243,0.214,north-northeast,1.4,Yes
2015/11/02,06:50,0.522,0.297,0.544,0.498,0.462,0.246,0.215,north,1.7,Yes
2015/11/02,07:00,0.525,0.296,0.546,0.502,0.462,0.246,0.214,north,2.2,Yes
2015/11/02,07:10,0.520,0.297,0.543,0.497,0.461,0.245,0.216,north,3.1,Yes
2015/11/02,07:20,0.522,0.297,0.545,0.500,0.462,0.246,0.214,north,2.3,Yes
2015/11/02,07:30,0.521,0.295,0.540,0.498,0.459,0.245,0.215,north-northwest,1.6,Yes
2015/11/02,07:40,0.519,0.296,0.543,0.498,0.459,0.244,0.214,north-northwest,2.2,Yes
2015/11/02,07:50,0.523,0.295,0.541,0.500,0.461,0.245,0.214,north-northwest,3.3,Yes
2015/11/02,08:00,0.518,0.295,0.540,0.496,0.458,0.243,0.213,north-northwest,2.9,Yes
2015/11/02,08:10,0.523,0.297,0.543,0.497,0.461,0.244,0.212,northwest,1.7,Yes
2015/11/02,08:20,0.518,0.294,0.541,0.498,0.459,0.245,0.213,north-northwest,2.9,Yes
2015/11/02,08:30,0.523,0.296,0.543,0.496,0.460,0.245,0.215,north-northwest,3.7,Yes
2015/11/02,08:40,0.522,0.295,0.541,0.500,0.459,0.246,0.214,north-northwest,4.3,No
2015/11/02,08:50,0.518,0.294,0.541,0.496,0.459,0.244,0.214,north-northwest,5.3,No
2015/11/02,09:00,0.522,0.296,0.542,0.498,0.461,0.244,0.213,north-northwest,5.8,Yes
2015/11/02,09:10,0.518,0.294,0.541,0.497,0.459,0.243,0.213,north-northwest,5.7,Yes
2015/11/02,09:20,0.520,0.297,0.543,0.497,0.460,0.245,0.213,north-northwest,5.5,Yes
2015/11/02,09:30,0.518,0.295,0.541,0.495,0.459,0.245,0.214,north-northwest,5.0,Yes
2015/11/02,09:40,0.518,0.294,0.539,0.491,0.457,0.244,0.212,north-northwest,4.2,Yes
2015/11/02,09:50,0.517,0.295,0.537,0.492,0.457,0.245,0.213,north-northwest,4.4,Yes
2015/11/02,10:00,0.514,0.293,0.534,0.490,0.456,0.243,0.213,north,5.0,Yes
2015/11/02,10:10,0.515,0.294,0.537,0.490,0.455,0.243,0.212,north-northwest,6.0,Yes
2015/11/02,10:20,0.512,0.294,0.531,0.490,0.456,0.244,0.211,north,8.1,Yes
2015/11/02,10:30,0.511,0.293,0.532,0.485,0.453,0.243,0.212,north,6.4,Yes
2015/11/02,10:40,0.513,0.295,0.531,0.488,0.454,0.245,0.211,north,5.9,Yes
2015/11/02,10:50,0.510,0.294,0.528,0.486,0.454,0.244,0.212,north,5.1,Yes
2015/11/02,11:00,0.510,0.292,0.529,0.485,0.452,0.244,0.210,northeast,0.7,Yes
2015/11/02,11:10,0.508,0.292,0.524,0.484,0.453,0.243,0.211,north,5.8,Yes
2015/11/02,11:20,0.504,0.290,0.524,0.481,0.450,0.242,0.209,north,8.6,Yes
2015/11/02,11:30,0.508,0.291,0.525,0.480,0.451,0.241,0.209,north,5.5,Yes
2015/11/02,11:40,0.504,0.290,0.521,0.483,0.452,0.242,0.209,north-northwest,5.3,Yes
2015/11/02,11:50,0.505,0.291,0.526,0.481,0.451,0.242,0.210,north,7.0,Yes
2015/11/02,12:00,0.506,0.290,0.522,0.483,0.451,0.242,0.209,north,8.0,Yes
2015/11/02,12:10,0.504,0.293,0.523,0.479,0.453,0.241,0.210,north,8.2,Yes
2015/11/02,12:20,0.506,0.290,0.524,0.479,0.454,0.241,0.210,north-northwest,8.1,Yes
2015/11/02,12:30,0.503,0.291,0.522,0.480,0.452,0.241,0.209,northwest,7.2,Yes
2015/11/02,12:40,0.501,0.290,0.520,0.479,0.453,0.240,0.208,north-northwest,8.3,Yes
2015/11/02,12:50,0.505,0.289,0.522,0.477,0.450,0.240,0.209,north-northwest,8.6,Yes
2015/11/02,13:00,0.502,0.290,0.518,0.478,0.452,0.239,0.208,north,8.1,Yes
2015/11/02,13:10,0.501,0.289,0.522,0.479,0.452,0.238,0.209,north,7.5,Yes
2015/11/02,13:20,0.502,0.286,0.521,0.480,0.451,0.238,0.207,north,8.2,Yes
2015/11/02,13:30,0.498,0.286,0.518,0.478,0.451,0.236,0.206,north,8.6,Yes
2015/11/02,13:40,0.499,0.287,0.522,0.476,0.451,0.236,0.207,north,10.9,Yes
2015/11/02,13:50,0.500,0.287,0.517,0.479,0.451,0.236,0.207,north,8.4,Yes
2015/11/02,14:00,0.497,0.288,0.520,0.476,0.453,0.236,0.207,north,9.2,Yes
2015/11/02,14:10,0.501,0.286,0.522,0.478,0.453,0.237,0.206,north,8.0,Yes
2015/11/02,14:20,0.498,0.286,0.517,0.479,0.452,0.237,0.205,north,7.0,Yes
2015/11/02,14:30,0.499,0.288,0.521,0.476,0.452,0.237,0.208,north,8.2,Yes
2015/11/02,14:40,0.500,0.287,0.518,0.479,0.451,0.237,0.208,north,7.4,Yes
2015/11/02,14:50,0.497,0.286,0.519,0.478,0.451,0.236,0.207,north-northwest,7.8,Yes
2015/11/02,15:00,0.500,0.286,0.520,0.477,0.453,0.236,0.205,north,9.1,Yes
2015/11/02,15:10,0.500,0.285,0.519,0.477,0.451,0.236,0.205,north,8.5,Yes
2015/11/02,15:20,0.496,0.285,0.519,0.476,0.452,0.234,0.205,north,8.3,Yes
2015/11/02,15:30,0.501,0.287,0.518,0.478,0.452,0.235,0.204,north,9.8,Yes
2015/11/02,15:40,0.496,0.284,0.517,0.476,0.451,0.235,0.205,north,10.7,Yes
2015/11/02,15:50,0.497,0.285,0.520,0.476,0.452,0.235,0.203,north,11.4,Yes
2015/11/02,16:00,0.499,0.286,0.517,0.476,0.450,0.235,0.204,north,10.5,Yes
2015/11/02,16:10,0.497,0.284,0.519,0.475,0.447,0.235,0.204,north,9.3,Yes
2015/11/02,16:20,0.497,0.284,0.519,0.473,0.450,0.233,0.203,north,8.4,Yes
2015/11/02,16:30,0.497,0.284,0.515,0.473,0.449,0.233,0.202,north,8.5,No
2015/11/02,16:40,0.494,0.282,0.520,0.474,0.448,0.234,0.202,north,8.3,No
2015/11/02,16:50,0.498,0.283,0.516,0.473,0.449,0.232,0.201,north,8.4,No
2015/11/02,17:00,0.493,0.281,0.516,0.475,0.446,0.232,0.201,north,7.5,No
2015/11/02,17:10,0.495,0.281,0.516,0.470,0.447,0.230,0.200,north,7.6,No
2015/11/02,17:20,0.494,0.280,0.513,0.474,0.447,0.229,0.199,north,7.5,No
2015/11/02,17:30,0.493,0.279,0.515,0.472,0.446,0.229,0.198,north,8.2,No
2015/11/02,17:40,0.495,0.280,0.514,0.473,0.446,0.229,0.197,north,7.8,No
2015/11/02,17:50,0.493,0.279,0.513,0.472,0.446,0.229,0.197,north,9.3,No
2015/11/02,18:00,0.492,0.278,0.517,0.470,0.446,0.229,0.197,north,8.7,No
2015/11/02,18:10,0.495,0.279,0.513,0.474,0.445,0.228,0.197,north-northwest,8.6,No
2015/11/02,18:20,0.491,0.278,0.516,0.470,0.445,0.230,0.197,north-northwest,9.6,No
2015/11/02,18:30,0.495,0.276,0.513,0.470,0.444,0.228,0.197,north-northwest,11.8,No
2015/11/02,18:40,0.493,0.280,0.512,0.472,0.446,0.228,0.197,north-northwest,9.7,No
2015/11/02,18:50,0.493,0.279,0.518,0.469,0.444,0.228,0.197,north-northwest,8.1,No
2015/11/02,19:00,0.496,0.277,0.513,0.473,0.445,0.228,0.198,north,8.1,No
2015/11/02,19:10,0.492,0.277,0.515,0.471,0.447,0.229,0.198,north,7.7,No
2015/11/02,19:20,0.495,0.278,0.514,0.470,0.446,0.228,0.197,north,7.2,No
2015/11/02,19:30,0.494,0.279,0.513,0.471,0.445,0.229,0.198,north,6.7,No
2015/11/02,19:40,0.493,0.278,0.516,0.470,0.446,0.229,0.197,north,6.2,No
2015/11/02,19:50,0.494,0.278,0.511,0.470,0.445,0.227,0.198,north,6.2,No
2015/11/02,20:00,0.491,0.279,0.515,0.471,0.446,0.229,0.197,north-northwest,5.5,No
2015/11/02,20:10,0.496,0.277,0.514,0.472,0.445,0.229,0.197,north-northwest,4.6,No
2015/11/02,20:20,0.492,0.278,0.513,0.472,0.446,0.228,0.197,north-northwest,4.3,No
2015/11/02,20:30,0.495,0.279,0.516,0.470,0.447,0.228,0.197,north-northwest,5.5,No
2015/11/02,20:40,0.496,0.276,0.514,0.473,0.444,0.228,0.198,north-northwest,6.4,No
2015/11/02,20:50,0.493,0.279,0.517,0.471,0.448,0.228,0.198,north-northwest,5.4,No
2015/11/02,21:00,0.496,0.278,0.513,0.473,0.446,0.228,0.197,north-northwest,4.5,No
2015/11/02,21:10,0.494,0.279,0.515,0.471,0.445,0.229,0.199,north-northwest,3.6,No
2015/11/02,21:20,0.496,0.278,0.515,0.470,0.447,0.228,0.198,north-northwest,4.5,No
2015/11/02,21:30,0.495,0.278,0.513,0.472,0.444,0.228,0.198,northwest,4.0,No
2015/11/02,21:40,0.493,0.279,0.517,0.471,0.448,0.228,0.198,northwest,3.8,No
2015/11/02,21:50,0.497,0.277,0.514,0.474,0.446,0.228,0.198,northwest,3.4,No
2015/11/02,22:00,0.494,0.279,0.518,0.470,0.448,0.228,0.198,northwest,3.6,No
2015/11/02,22:10,0.496,0.279,0.514,0.471,0.445,0.228,0.197,northwest,4.2,No
2015/11/02,22:20,0.494,0.277,0.514,0.472,0.446,0.228,0.198,northwest,4.3,No
2015/11/02,22:30,0.494,0.279,0.516,0.473,0.447,0.229,0.197,northwest,4.7,No
2015/11/02,22:40,0.495,0.278,0.514,0.474,0.445,0.229,0.199,northwest,4.2,No
2015/11/02,22:50,0.494,0.279,0.517,0.470,0.448,0.229,0.197,north-northwest,4.2,No
2015/11/02,23:00,0.495,0.278,0.513,0.475,0.447,0.228,0.198,north,3.9,No
2015/11/02,23:10,0.493,0.277,0.516,0.471,0.447,0.230,0.198,north,3.3,No
2015/11/02,23:20,0.496,0.279,0.517,0.472,0.449,0.227,0.198,north,2.8,No
2015/11/02,23:30,0.494,0.279,0.514,0.474,0.444,0.229,0.198,north-northeast,1.7,No
2015/11/02,23:40,0.496,0.278,0.517,0.472,0.448,0.230,0.199,north,0.5,No
2015/11/02,23:50,0.495,0.278,0.513,0.474,0.446,0.228,0.198,-,CALM,No
